TimeCST,TemperatureF,Dew PointF,Humidity,Sea Level PressureIn,VisibilityMPH,Wind Direction,Wind SpeedMPH,Gust SpeedMPH,PrecipitationIn,Events,Conditions,WindDirDegrees,DateUTC
12:53 AM,51.1,45.0,80,29.88,10.0,Calm,Calm,-,N/A,,Overcast,0,2012-12-07 06:53:00
1:53 AM,51.1,45.0,80,29.88,10.0,SSE,4.6,-,N/A,,Overcast,160,2012-12-07 07:53:00
2:24 AM,51.8,46.4,82,29.89,10.0,SSW,5.8,-,N/A,,Overcast,200,2012-12-07 08:24:00
2:48 AM,51.8,46.4,82,29.89,10.0,South,6.9,-,N/A,,Overcast,190,2012-12-07 08:48:00
2:53 AM,52.0,46.0,80,29.88,10.0,SSW,6.9,-,N/A,,Overcast,200,2012-12-07 08:53:00
3:06 AM,51.8,46.4,82,29.89,10.0,SSW,9.2,-,N/A,,Overcast,200,2012-12-07 09:06:00
3:53 AM,50.0,48.9,96,29.88,3.0,WSW,3.5,-,0.00,Rain,Light Rain,240,2012-12-07 09:53:00
4:07 AM,50.0,48.2,94,29.89,5.0,WSW,3.5,-,0.00,,Overcast,250,2012-12-07 10:07:00
4:23 AM,50.0,48.2,94,29.89,4.0,SSW,3.5,-,0.00,Rain,Light Rain,200,2012-12-07 10:23:00
4:53 AM,50.0,48.9,96,29.88,6.0,South,3.5,-,0.00,,Overcast,190,2012-12-07 10:53:00
5:44 AM,48.2,48.2,100,29.87,6.0,South,4.6,-,N/A,,Overcast,170,2012-12-07 11:44:00
5:53 AM,48.9,48.0,97,29.87,6.0,South,4.6,-,N/A,,Overcast,170,2012-12-07 11:53:00
6:53 AM,50.0,48.9,96,29.88,6.0,Calm,Calm,-,N/A,,Overcast,0,2012-12-07 12:53:00
7:53 AM,50.0,48.9,96,29.88,4.0,Calm,Calm,-,N/A,,Overcast,0,2012-12-07 13:53:00
8:53 AM,51.1,48.9,92,29.89,4.0,Calm,Calm,-,N/A,,Overcast,0,2012-12-07 14:53:00
9:45 AM,51.8,48.2,88,29.90,5.0,Calm,Calm,-,N/A,,Overcast,0,2012-12-07 15:45:00
9:53 AM,53.1,48.9,86,29.90,5.0,Calm,Calm,-,N/A,,Overcast,0,2012-12-07 15:53:00
10:45 AM,53.6,50.0,88,29.89,3.0,South,3.5,-,N/A,,Overcast,180,2012-12-07 16:45:00
10:53 AM,52.0,51.1,97,29.88,2.0,SSE,3.5,-,N/A,,Overcast,160,2012-12-07 16:53:00
11:44 AM,51.8,51.8,100,29.87,1.2,South,3.5,-,N/A,,Overcast,190,2012-12-07 17:44:00
11:53 AM,52.0,51.1,97,29.86,1.2,Calm,Calm,-,N/A,,Overcast,0,2012-12-07 17:53:00
12:00 PM,53.6,51.8,94,29.86,1.5,Calm,Calm,-,N/A,,Overcast,0,2012-12-07 18:00:00
12:34 PM,53.6,51.8,94,29.84,1.5,Calm,Calm,-,N/A,,Overcast,0,2012-12-07 18:34:00
12:45 PM,53.6,51.8,94,29.84,3.0,Calm,Calm,-,N/A,,Overcast,0,2012-12-07 18:45:00
12:53 PM,53.1,51.1,93,29.83,3.0,Calm,Calm,-,N/A,,Overcast,0,2012-12-07 18:53:00
1:53 PM,53.1,52.0,96,29.82,1.5,SSE,3.5,-,N/A,,Overcast,150,2012-12-07 19:53:00
2:53 PM,53.1,52.0,96,29.81,1.2,Calm,Calm,-,N/A,,Overcast,0,2012-12-07 20:53:00
3:53 PM,54.0,52.0,93,29.83,1.2,Calm,Calm,-,0.01,Rain,Light Rain,0,2012-12-07 21:53:00
4:29 PM,53.6,53.6,100,29.83,1.0,Calm,Calm,-,0.02,Rain,Light Rain,0,2012-12-07 22:29:00
4:53 PM,53.1,52.0,96,29.84,1.0,Calm,Calm,-,0.03,Rain,Light Rain,0,2012-12-07 22:53:00
5:24 PM,53.6,51.8,94,29.84,2.0,Calm,Calm,-,0.01,Rain,Light Rain,0,2012-12-07 23:24:00
5:53 PM,53.1,53.1,100,29.84,2.0,Calm,Calm,-,0.01,,Overcast,0,2012-12-07 23:53:00
6:37 PM,53.6,51.8,94,29.84,2.5,Calm,Calm,-,N/A,,Overcast,0,2012-12-08 00:37:00
6:41 PM,53.6,51.8,94,29.84,3.0,Calm,Calm,-,N/A,,Overcast,0,2012-12-08 00:41:00
6:46 PM,53.6,53.6,100,29.84,2.5,Calm,Calm,-,N/A,,Overcast,0,2012-12-08 00:46:00
6:53 PM,53.1,53.1,100,29.85,2.5,Calm,Calm,-,N/A,,Overcast,0,2012-12-08 00:53:00
7:08 PM,53.6,51.8,94,29.85,2.5,Calm,Calm,-,N/A,,Overcast,0,2012-12-08 01:08:00
7:19 PM,53.6,51.8,94,29.85,3.0,Calm,Calm,-,N/A,,Overcast,0,2012-12-08 01:19:00
7:22 PM,53.6,51.8,94,29.85,2.5,Calm,Calm,-,N/A,,Overcast,0,2012-12-08 01:22:00
7:28 PM,51.8,51.8,100,29.86,1.8,Calm,Calm,-,N/A,,Overcast,0,2012-12-08 01:28:00
7:37 PM,51.8,51.8,100,29.86,1.2,Calm,Calm,-,N/A,,Overcast,0,2012-12-08 01:37:00
7:53 PM,52.0,52.0,100,29.86,1.0,NNW,3.5,-,N/A,,Overcast,340,2012-12-08 01:53:00
8:03 PM,51.8,51.8,100,29.86,0.8,NNW,3.5,-,N/A,,Overcast,340,2012-12-08 02:03:00
8:10 PM,53.6,51.8,94,29.86,0.5,Calm,Calm,-,N/A,Fog,Fog,0,2012-12-08 02:10:00
8:19 PM,53.6,51.8,94,29.87,0.8,North,3.5,-,N/A,,Mist,350,2012-12-08 02:19:00
8:28 PM,53.6,51.8,94,29.87,1.0,North,3.5,-,N/A,,Overcast,350,2012-12-08 02:28:00
8:53 PM,53.1,52.0,96,29.87,1.5,Calm,Calm,-,N/A,,Overcast,0,2012-12-08 02:53:00
9:08 PM,51.8,51.8,100,29.88,1.2,North,6.9,-,N/A,,Overcast,360,2012-12-08 03:08:00
9:24 PM,51.8,51.8,100,29.88,2.5,NNE,5.8,-,N/A,,Overcast,30,2012-12-08 03:24:00
9:38 PM,51.8,51.8,100,29.89,2.5,North,6.9,-,N/A,,Overcast,10,2012-12-08 03:38:00
9:53 PM,51.1,48.9,92,29.89,3.0,North,8.1,-,0.01,,Overcast,10,2012-12-08 03:53:00
10:07 PM,50.0,48.2,94,29.89,3.0,North,10.4,-,N/A,,Overcast,10,2012-12-08 04:07:00
10:30 PM,48.2,48.2,100,29.90,3.0,North,6.9,-,N/A,,Overcast,10,2012-12-08 04:30:00
10:48 PM,48.2,48.2,100,29.90,3.0,North,5.8,-,N/A,,Overcast,360,2012-12-08 04:48:00
10:53 PM,48.9,48.0,97,29.90,3.0,North,8.1,-,N/A,,Overcast,10,2012-12-08 04:53:00
11:20 PM,48.2,46.4,93,29.91,4.0,NE,5.8,-,N/A,,Overcast,40,2012-12-08 05:20:00
11:53 PM,48.0,46.9,96,29.91,4.0,North,4.6,-,N/A,,Overcast,10,2012-12-08 05:53:00